sat.trackr.live / text

‹ back to catalog

LINK

NORAD 69792 · 2026-152A

PAYLOAD ACTIVE UNKNOWN

§ Identity

Operator
Country
US
Launch date
2026-07-03
Launch site
WRAS
Launch vehicle
Mass (kg)
RCS (m²)

External: N2YO · Heavens-Above · Gunter

§ Orbital elements

Epoch: 2026-09-19T23:16:44.126688Z

Period
89.93 min
Inclination
20.5826°
Eccentricity
0.0002787
Mean motion
16.01198011 rev/d
Perigee alt
269.2 km
Apogee alt
273.0 km
Semi-major
6,649.2 km
B*
2.3192e-3
RAAN
164.3612°
Arg perigee
7.2634°
Mean anomaly
352.7859°
Rev number
1,242

§ Raw data

LINK1 69792U 26152A   26262.96995517  .01342099  92320-3  23192-2 0  99942 69792  20.5826 164.3612 0002787   7.2634 352.7859 16.01198011 12423

JSON: /api/v1/satellites/69792 · /tle

For live sub-satellite position, see the globe view (requires WebGL).

§ Visibility from observer

Set your observer location to see the next 7 days of passes ≥ 10°. The values pass through the URL so the page stays shareable.

No JS? Fill the form by hand. The geolocation button needs JavaScript.